Preview of NWS' New Version of Forecast
This preview is not operational and should not be used for support decisions.

Regional Weather Roundup (RWR)

Issued by National Weather Service (NWS)

                            
000
ASUS44 KJAN 152110
RWRMS 

MISSISSIPPI HOURLY WEATHER ROUNDUP
NATIONAL WEATHER SERVICE JACKSON MS
300 PM CST FRI FEB 15 2019

NOTE: "FAIR: INDICATES FEW OR NO CLOUDS BELOW 12,000 FEET WITH NO
SIGNIFICANT WEATHER AND/OR OBSTRUCTIONS TO VISIBILITY.

MSZ001>002-007>008-010>013-018>021-025>028-034>036-152200-
NORTHWEST MISSISSIPPI
  
CITY           SKY/WX    TMP DP  RH WIND       PRES   REMARKS
BATESVILLE     CLOUDY    55  50  82 VRB6G15   29.77F                  
CLARKSDALE     CLOUDY    52  48  87 N12       29.76F                  
CLEVELAND      CLOUDY    52  52 100 NE8       29.74F FOG              
GREENWOOD      CLOUDY    65  59  81 S8        29.74F                  
GREENVILLE     CLOUDY    56  54  93 NE9       29.73F                  
OLIVE BRANCH   CLOUDY    43  43 100 NE8       29.81F FOG              
OXFORD         DRIZZLE   54  50  87 E6        29.79F                  
TUNICA           N/A     46  41  81 NE9       29.80F                  
WINONA         CLOUDY    63  60  90 S5        29.77S                  
$$

MSZ003>006-009-014>017-022>024-029>033-037>039-152200-
NORTHEAST MISSISSIPPI
  
CITY           SKY/WX    TMP DP  RH WIND       PRES   REMARKS
ABERDEEN       CLOUDY    63  63 100 S8        29.80S                  
COLUMBUS AFB   CLOUDY    63  57  81 S7        29.78F                  
CORINTH        DRIZZLE   50  46  87 NE8       29.81F                  
GOLDN TRIANGLE CLOUDY    64  59  83 SE6       29.79S                  
STARKVILLE     CLOUDY    63  59  88 SE5       29.80R                  
TUPELO         CLOUDY    59  53  80 N9        29.78F                  
$$

MSZ040-058-152200-
CENTRAL MISSISSIPPI
  
CITY           SKY/WX    TMP DP  RH WIND       PRES   REMARKS
JACKSON INTL   CLOUDY    67  61  81 S10       29.76F                  
JACKSON HAWKNS CLOUDY    66  63  90 S12       29.77F                  
MADISON        CLOUDY    64  63  94 S3        29.77R                  
MERIDIAN KEY   CLOUDY    66  61  84 S8        29.80F                  
MERIDIAN NAS   CLOUDY    67  61  81 S5        29.80F                  
RAYMOND        MOCLDY    70  64  83 S10       29.74F                  
VICKSBURG VKS  MOCLDY    72  63  73 S10       29.73F                  
$$

MSZ059>079-152200-
SOUTH MISSISSIPPI
  
CITY           SKY/WX    TMP DP  RH WIND       PRES   REMARKS
HATTIESBURG    CLOUDY    65  63  93 S13       29.81F FOG              
LAUREL         CLOUDY    64  64 100 S5        29.81F                  
MCCOMB         CLOUDY    69  62  78 S9        29.78F                  
NATCHEZ        CLOUDY    73  62  68 S13G22    29.75F                  
PINE BELT      CLOUDY    64  64 100 S8        29.81F                  
$$

MSZ080>082-152200-
COASTAL MISSISSIPPI
  
CITY           SKY/WX    TMP DP  RH WIND       PRES   REMARKS
BAY ST LOUIS   LGT RAIN  66  61  82 S9G16     29.85F FOG              
BILOXI         CLOUDY    63  59  87 SW9       29.85R                  
PASCAGOULA     CLOUDY    68  59  73 S9        29.85S                  
GULFPORT       CLOUDY    65  59  81 S7        29.84S                  
$$

LAZ007>009-015>016-023>026-152200-
NORTHEAST LOUISIANA
  
CITY           SKY/WX    TMP DP  RH WIND       PRES   REMARKS
BASTROP        MOCLDY    71  62  72 S5        29.70F                  
TALLULAH/VBURG FAIR      71  62  73 S12       29.72F                  
VIDALIA        CLOUDY    71  64  78 S8        29.74F                  
$$